Preview of NWS' New Version of Forecast
This preview is not operational and should not be used for support decisions.

Regional Weather Roundup (RWR)

Issued by National Weather Service (NWS)

                            
000
ASUS43 KTOP 251059
RWRKS 

WEATHER ROUNDUP FOR KANSAS
NATIONAL WEATHER SERVICE GOODLAND KS
600 AM CDT TUE JUN 25 2019

NOTE:  "FAIR" INDICATES FEW OR NO CLOUDS BELOW 12,000 FEET WITH NO
SIGNIFICANT WEATHER AND/OR OBSTRUCTIONS TO VISIBILITY.

KSZ001>006-013>018-027>032-041>047-251200-
NORTHWEST KANSAS
  
CITY           SKY/WX    TMP DP  RH WIND       PRES   REMARKS
GOODLAND       CLEAR     54  52  93 S6        29.95R                  
HAYS           CLEAR     64  57  78 SW7       29.91R                  
HILL CITY      CLEAR     67  55  65 SW9       29.89S                  
RUSSELL        CLEAR     63  56  78 SW9       29.88R                  
$$

KSZ061>065-074>080-084>089-251200-
SOUTHWEST KANSAS
  
CITY           SKY/WX    TMP DP  RH WIND       PRES   REMARKS
DODGE CITY     CLEAR     65  59  81 SW14      29.95R                  
GARDEN CITY    CLEAR     60  56  86 S7        29.94S                  
GREAT BEND     CLEAR     63  58  83 S9        29.91R                  
LIBERAL        TSTM      68  64  87 SW32G40   29.97R                  
$$

KSZ066>073-081>083-090>101-251200-
SOUTHEAST KANSAS
  
CITY           SKY/WX    TMP DP  RH WIND       PRES   REMARKS
CHANUTE        CLEAR     65  60  84 S6        29.93R                  
COFFEYVILLE    CLEAR     63  61  93 CALM      29.92R                  
HUTCHINSON     CLEAR     64  59  83 S7        29.91R                  
MEDICINE LODGE   N/A     61  60  97 CALM      29.93R                  
NEWTON         CLEAR     65  61  87 SW10      29.93R                  
PARSONS        CLEAR     64  62  93 CALM      29.94R                  
WICHITA INTL   CLEAR     63  59  87 S5        29.92R                  
WICHITA JABRA  CLEAR     65  61  87 S9        29.91R                  
WICHITA MCCONL CLEAR     63  60  91 S8        29.92R                  
WINFIELD       CLEAR     64  61  90 S6        29.94R                  
$$

KSZ007>012-019>026-033>040-048>060-102>105-251200-
NORTHEAST KANSAS
  
CITY           SKY/WX    TMP DP  RH WIND       PRES   REMARKS
CONCORDIA      CLEAR     66  58  75 CALM      29.90R                  
EMPORIA        CLEAR     63  61  93 S7        29.90R                  
LAWRENCE       CLEAR     67  59  75 SE5       29.89R                  
MANHATTAN      CLEAR     63  60  90 CALM      29.88R                  
OLATHE IND     CLEAR     63  59  87 S8        29.91R                  
OLATHE EXE     CLEAR     64  60  87 S6        29.91R                  
SALINA         CLEAR     62  58  86 S9        29.88R                  
TOPEKA BILLARD CLEAR     68  60  75 SW3       29.88R                  
TOPEKA FORBES  CLEAR     67  60  78 S10       29.88R                  
$$